Tracking 35280 objects as of 7-Sep-2026
HD Live streaming from Space Station
objects crossing your sky now

QIANFAN-100

Track QIANFAN-100 now!
10-day predictions
QIANFAN-100 is classified as:


NORAD ID: 66042
Int'l Code: 2025-233K
Launch date: October 17, 2025
Source: People's Republic of China (PRC)
Launch site: Taiyaun Space Center, China (TSC)
Your satellite tracking list
Your tracking list is empty




NASA's NSSDC Master Catalog

Two Line Element Set (TLE):
1 66042U 25233K   26250.66334265  .00000069  00000-0  88738-4 0  9996
2 66042  89.0049  34.7892 0002003  91.3684 268.7696 13.51018941 44374
Source of the keplerian elements: AFSPC